OHPAS EDDN-EDDL

Flight info

Callsign OHPAS
Flight time 1h 6m
Altitude 24000
Route SULUS1G/28 SULUS L604 DEMAB T842 ADEMI T854 DOMUX
Aircraft PC12/L-SDFGRWY/S

Departure

Time 2026-05-04 17:49
Airport Nuremberg Airport (EDDN)

Arrival

Time 2026-05-04 18:56
Airport Düsseldorf Airport (EDDL)
Time Latitude Longitude Altitude Speed Heading
2026-05-04 17:29 49.49454 11.06872 1022 ft 0 kts 97°
2026-05-04 17:35 49.49454 11.06871 1022 ft 0 kts 97°
2026-05-04 17:37 49.49455 11.06896 1022 ft 6 kts 63°
2026-05-04 17:37 49.49497 11.06918 1022 ft 6 kts
2026-05-04 17:37 49.49522 11.06950 1022 ft 5 kts 85°
2026-05-04 17:38 49.49518 11.07002 1022 ft 5 kts 99°
2026-05-04 17:38 49.49513 11.07054 1022 ft 5 kts 96°
2026-05-04 17:38 49.49507 11.07114 1022 ft 7 kts 98°
2026-05-04 17:38 49.49515 11.07187 1022 ft 7 kts 29°
2026-05-04 17:39 49.49613 11.07213 1021 ft 8 kts 11°
2026-05-04 17:39 49.49634 11.07280 1021 ft 8 kts 98°
2026-05-04 17:39 49.49624 11.07378 1022 ft 10 kts 98°
2026-05-04 17:40 49.49612 11.07501 1021 ft 13 kts 98°
2026-05-04 17:40 49.49598 11.07644 1022 ft 13 kts 98°
2026-05-04 17:40 49.49585 11.07776 1023 ft 12 kts 98°
2026-05-04 17:40 49.49573 11.07899 1024 ft 12 kts 98°
2026-05-04 17:41 49.49560 11.08030 1022 ft 13 kts 98°
2026-05-04 17:41 49.49546 11.08174 1024 ft 14 kts 98°
2026-05-04 17:41 49.49536 11.08308 1025 ft 11 kts 82°
2026-05-04 17:41 49.49581 11.08354 1028 ft 6 kts
2026-05-04 17:42 49.49614 11.08391 1029 ft 7 kts 70°
2026-05-04 17:42 49.49611 11.08480 1031 ft 11 kts 98°
2026-05-04 17:42 49.49598 11.08611 1032 ft 14 kts 99°
2026-05-04 17:42 49.49583 11.08767 1033 ft 14 kts 99°
2026-05-04 17:43 49.49568 11.08912 1034 ft 14 kts 98°
2026-05-04 17:43 49.49554 11.09056 1036 ft 13 kts 98°
2026-05-04 17:43 49.49541 11.09188 1039 ft 12 kts 98°
2026-05-04 17:43 49.49529 11.09308 1041 ft 10 kts 96°
2026-05-04 17:44 49.49546 11.09393 1043 ft 7 kts 53°
2026-05-04 17:44 49.49568 11.09440 1044 ft 5 kts 54°
2026-05-04 17:44 49.49584 11.09473 1045 ft 3 kts 53°
2026-05-04 17:44 49.49589 11.09484 1045 ft 0 kts 56°
2026-05-04 17:45 49.49598 11.09502 1046 ft 2 kts 53°
2026-05-04 17:45 49.49600 11.09505 1046 ft 0 kts 53°
2026-05-04 17:46 49.49600 11.09506 1046 ft 1 kts 53°
2026-05-04 17:46 49.49630 11.09560 1048 ft 10 kts 37°
2026-05-04 17:47 49.49690 11.09584 1049 ft 7 kts 332°
2026-05-04 17:47 49.49695 11.09571 1049 ft 0 kts 279°
2026-05-04 17:48 49.49701 11.09517 1048 ft 21 kts 278°
2026-05-04 17:48 49.49746 11.09059 1040 ft 65 kts 279°
2026-05-04 17:48 49.49832 11.08199 1033 ft 94 kts 284°
2026-05-04 17:48 49.49917 11.07139 1115 ft 105 kts 283°
2026-05-04 17:49 49.50056 11.05985 1295 ft 114 kts 284°
2026-05-04 17:49 49.50162 11.04893 1513 ft 118 kts 283°
2026-05-04 17:49 49.50289 11.03598 1769 ft 129 kts 284°
2026-05-04 17:49 49.50434 11.02139 2045 ft 148 kts 282°
2026-05-04 17:50 49.50599 11.00486 2354 ft 163 kts 283°
2026-05-04 17:50 49.50771 10.98712 2737 ft 172 kts 281°
2026-05-04 17:50 49.50947 10.96867 3103 ft 176 kts 280°
2026-05-04 17:50 49.51224 10.95058 3468 ft 177 kts 296°
2026-05-04 17:51 49.51959 10.93554 3841 ft 178 kts 321°
2026-05-04 17:51 49.53067 10.92765 4220 ft 177 kts 346°
2026-05-04 17:51 49.54277 10.92333 4604 ft 179 kts 349°
2026-05-04 17:51 49.55506 10.91906 4971 ft 183 kts 348°
2026-05-04 17:52 49.56753 10.91460 5345 ft 185 kts 347°
2026-05-04 17:52 49.58017 10.91002 5718 ft 188 kts 347°
2026-05-04 17:52 49.59299 10.90537 6094 ft 190 kts 346°
2026-05-04 17:52 49.60576 10.90073 6471 ft 191 kts 346°
2026-05-04 17:53 49.61874 10.89602 6834 ft 192 kts 346°
2026-05-04 17:53 49.63186 10.89126 7202 ft 194 kts 346°
2026-05-04 17:53 49.64503 10.88648 7572 ft 195 kts 345°
2026-05-04 17:53 49.65833 10.88163 7947 ft 197 kts 345°
2026-05-04 17:54 49.67170 10.87677 8326 ft 198 kts 345°
2026-05-04 17:54 49.68515 10.87188 8709 ft 199 kts 344°
2026-05-04 17:54 49.69866 10.86696 9094 ft 200 kts 344°
2026-05-04 17:54 49.71217 10.86204 9487 ft 200 kts 343°
2026-05-04 17:55 49.72568 10.85712 9876 ft 203 kts 343°
2026-05-04 17:55 49.73947 10.85209 10235 ft 205 kts 343°
2026-05-04 17:55 49.75337 10.84702 10601 ft 206 kts 343°
2026-05-04 17:55 49.76736 10.84192 10967 ft 207 kts 343°
2026-05-04 17:56 49.78137 10.83680 11336 ft 207 kts 343°
2026-05-04 17:56 49.79545 10.83165 11711 ft 208 kts 342°
2026-05-04 17:56 49.80954 10.82650 12098 ft 208 kts 342°
2026-05-04 17:56 49.82368 10.82133 12489 ft 209 kts 342°
2026-05-04 17:57 49.83782 10.81615 12874 ft 209 kts 342°
2026-05-04 17:57 49.85196 10.81097 13277 ft 208 kts 342°
2026-05-04 17:57 49.86605 10.80580 13668 ft 207 kts 342°
2026-05-04 17:57 49.88017 10.80062 14033 ft 207 kts 342°
2026-05-04 17:58 49.89412 10.79550 14382 ft 207 kts 342°
2026-05-04 17:58 49.90794 10.79042 14739 ft 206 kts 342°
2026-05-04 17:58 49.92194 10.78528 15103 ft 206 kts 342°
2026-05-04 17:58 49.93585 10.78017 15473 ft 205 kts 341°
2026-05-04 17:59 49.94969 10.77507 15850 ft 204 kts 341°
2026-05-04 17:59 49.96351 10.76998 16224 ft 204 kts 341°
2026-05-04 17:59 49.99100 10.75985 16989 ft 202 kts 341°
2026-05-04 18:00 50.00468 10.75480 17382 ft 202 kts 341°
2026-05-04 18:00 50.01834 10.74976 17782 ft 202 kts 341°
2026-05-04 18:00 50.03178 10.74480 18177 ft 201 kts 341°
2026-05-04 18:00 50.04540 10.73977 18538 ft 201 kts 341°
2026-05-04 18:01 50.05900 10.73474 18883 ft 201 kts 341°
2026-05-04 18:01 50.07226 10.72849 19238 ft 195 kts 326°
2026-05-04 18:01 50.08287 10.71619 19606 ft 186 kts 307°
2026-05-04 18:02 50.10072 10.68697 20332 ft 188 kts 307°
2026-05-04 18:02 50.10986 10.67209 20683 ft 189 kts 307°
2026-05-04 18:02 50.11893 10.65725 20997 ft 190 kts 307°
2026-05-04 18:02 50.12797 10.64246 21301 ft 191 kts 307°
2026-05-04 18:03 50.13714 10.62743 21610 ft 192 kts 307°
2026-05-04 18:03 50.14639 10.61228 21927 ft 193 kts 307°
2026-05-04 18:03 50.15595 10.59654 21963 ft 207 kts 308°
2026-05-04 18:03 50.16621 10.57968 21973 ft 220 kts 308°
2026-05-04 18:04 50.17706 10.56191 21971 ft 231 kts 308°
2026-05-04 18:04 50.18832 10.54342 21972 ft 239 kts 309°
2026-05-04 18:04 50.21190 10.50461 21974 ft 251 kts 309°
2026-05-04 18:05 50.22402 10.48463 21973 ft 256 kts 309°
2026-05-04 18:05 50.23638 10.46454 21975 ft 259 kts 310°
2026-05-04 18:05 50.24908 10.44436 21973 ft 261 kts 310°
2026-05-04 18:05 50.26189 10.42392 21979 ft 263 kts 310°
2026-05-04 18:06 50.28754 10.38258 21976 ft 266 kts 309°
2026-05-04 18:06 50.30031 10.36202 21979 ft 266 kts 309°
2026-05-04 18:06 50.31319 10.34128 21973 ft 267 kts 309°
2026-05-04 18:07 50.32612 10.32042 21975 ft 267 kts 309°
2026-05-04 18:07 50.33906 10.29951 21975 ft 267 kts 309°
2026-05-04 18:07 50.35194 10.27859 21975 ft 265 kts 307°
2026-05-04 18:07 50.36356 10.25642 21975 ft 263 kts 304°
2026-05-04 18:08 50.37510 10.23417 21973 ft 263 kts 304°
2026-05-04 18:08 50.38764 10.21323 21977 ft 264 kts 309°
2026-05-04 18:08 50.40051 10.19267 21976 ft 264 kts 309°
2026-05-04 18:08 50.41332 10.17200 21977 ft 264 kts 309°
2026-05-04 18:09 50.43455 10.13758 21980 ft 264 kts 308°
2026-05-04 18:09 50.45931 10.09531 21980 ft 263 kts 308°
2026-05-04 18:10 50.47174 10.07445 22126 ft 258 kts 308°
2026-05-04 18:10 50.48371 10.05405 22387 ft 250 kts 307°
2026-05-04 18:10 50.49528 10.03420 22651 ft 243 kts 307°
2026-05-04 18:10 50.50660 10.01484 22921 ft 238 kts 307°
2026-05-04 18:11 50.51773 9.99582 23189 ft 233 kts 307°
2026-05-04 18:11 50.52862 9.97720 23461 ft 230 kts 307°
2026-05-04 18:11 50.53963 9.95924 23703 ft 229 kts 314°
2026-05-04 18:11 50.55343 9.94624 23937 ft 232 kts 327°
2026-05-04 18:12 50.56822 9.93503 23972 ft 240 kts 328°
2026-05-04 18:12 50.58327 9.92357 23973 ft 247 kts 328°
2026-05-04 18:12 50.59894 9.91160 23979 ft 253 kts 328°
2026-05-04 18:12 50.61493 9.89938 23981 ft 258 kts 328°
2026-05-04 18:13 50.63125 9.88690 23982 ft 262 kts 328°
2026-05-04 18:13 50.64771 9.87431 23986 ft 264 kts 328°
2026-05-04 18:13 50.68102 9.84878 23985 ft 268 kts 328°
2026-05-04 18:14 50.69785 9.83586 23986 ft 269 kts 328°
2026-05-04 18:14 50.71473 9.82289 23983 ft 270 kts 328°
2026-05-04 18:14 50.73164 9.80989 23979 ft 270 kts 328°
2026-05-04 18:15 50.76409 9.78111 23985 ft 261 kts 308°
2026-05-04 18:15 50.78190 9.73328 23983 ft 253 kts 290°
2026-05-04 18:15 50.78976 9.70833 23983 ft 255 kts 293°
2026-05-04 18:16 50.79849 9.68383 23986 ft 256 kts 295°
2026-05-04 18:16 50.80733 9.65954 23982 ft 256 kts 295°
2026-05-04 18:16 50.81602 9.63491 23983 ft 256 kts 294°
2026-05-04 18:17 50.83319 9.58569 23985 ft 254 kts 292°
2026-05-04 18:17 50.84050 9.56041 23981 ft 253 kts 288°
2026-05-04 18:17 50.85504 9.50947 23975 ft 254 kts 291°
2026-05-04 18:18 50.86271 9.48424 23975 ft 254 kts 291°
2026-05-04 18:18 50.87029 9.45892 23976 ft 255 kts 290°
2026-05-04 18:18 50.87784 9.43340 23979 ft 255 kts 290°
2026-05-04 18:18 50.88539 9.40793 23976 ft 255 kts 290°
2026-05-04 18:19 50.90041 9.35738 23976 ft 255 kts 290°
2026-05-04 18:19 50.90801 9.33191 23977 ft 256 kts 290°
2026-05-04 18:19 50.91560 9.30607 23976 ft 255 kts 290°
2026-05-04 18:20 50.92307 9.28066 23977 ft 255 kts 290°
2026-05-04 18:20 50.93048 9.25557 23976 ft 256 kts 290°
2026-05-04 18:20 50.93807 9.22986 23979 ft 255 kts 290°
2026-05-04 18:20 50.94556 9.20442 23976 ft 255 kts 290°
2026-05-04 18:21 50.95306 9.17891 23976 ft 255 kts 290°
2026-05-04 18:21 50.96057 9.15339 23976 ft 255 kts 290°
2026-05-04 18:21 50.96804 9.12794 23978 ft 254 kts 290°
2026-05-04 18:21 50.97550 9.10250 23980 ft 255 kts 290°
2026-05-04 18:22 50.98298 9.07696 23977 ft 255 kts 290°
2026-05-04 18:22 50.99044 9.05146 23979 ft 255 kts 290°
2026-05-04 18:22 50.99789 9.02599 23977 ft 254 kts 290°
2026-05-04 18:22 51.00534 9.00047 23978 ft 255 kts 290°
2026-05-04 18:23 51.01280 8.97489 23973 ft 255 kts 290°
2026-05-04 18:23 51.02025 8.94933 23977 ft 255 kts 289°
2026-05-04 18:23 51.02771 8.92372 23981 ft 255 kts 290°
2026-05-04 18:23 51.03516 8.89807 23975 ft 255 kts 290°
2026-05-04 18:24 51.04260 8.87246 23977 ft 256 kts 290°
2026-05-04 18:24 51.05005 8.84679 23980 ft 255 kts 290°
2026-05-04 18:24 51.05740 8.82143 23982 ft 255 kts 290°
2026-05-04 18:24 51.06484 8.79573 23980 ft 255 kts 290°
2026-05-04 18:25 51.07330 8.77094 23978 ft 260 kts 304°
2026-05-04 18:25 51.08709 8.75176 23983 ft 267 kts 319°
2026-05-04 18:25 51.10225 8.73480 23984 ft 266 kts 319°
2026-05-04 18:25 51.11720 8.71736 23984 ft 266 kts 317°
2026-05-04 18:26 51.13208 8.69967 23983 ft 266 kts 317°
2026-05-04 18:26 51.14691 8.68195 23985 ft 266 kts 317°
2026-05-04 18:26 51.16160 8.66458 23984 ft 266 kts 318°
2026-05-04 18:26 51.17659 8.64717 23987 ft 267 kts 318°
2026-05-04 18:27 51.19162 8.62976 23876 ft 271 kts 318°
2026-05-04 18:27 51.20718 8.61158 23392 ft 281 kts 319°
2026-05-04 18:27 51.22296 8.59294 22848 ft 285 kts 319°
2026-05-04 18:27 51.23896 8.57392 22313 ft 287 kts 319°
2026-05-04 18:28 51.25497 8.55478 21792 ft 288 kts 319°
2026-05-04 18:28 51.27106 8.53548 21274 ft 289 kts 319°
2026-05-04 18:28 51.28713 8.51614 20767 ft 290 kts 319°
2026-05-04 18:28 51.30321 8.49673 20271 ft 290 kts 319°
2026-05-04 18:29 51.31921 8.47737 19987 ft 282 kts 318°
2026-05-04 18:29 51.33437 8.45898 19994 ft 279 kts 318°
2026-05-04 18:29 51.35000 8.43996 19988 ft 278 kts 318°
2026-05-04 18:29 51.36531 8.42127 19990 ft 276 kts 318°
2026-05-04 18:30 51.39576 8.38401 19990 ft 274 kts 318°
2026-05-04 18:30 51.41089 8.36545 19988 ft 274 kts 318°
2026-05-04 18:30 51.42599 8.34692 19993 ft 273 kts 318°
2026-05-04 18:31 51.44100 8.32849 19989 ft 267 kts 318°
2026-05-04 18:31 51.45552 8.31074 19988 ft 258 kts 318°
2026-05-04 18:31 51.46957 8.29360 19984 ft 250 kts 318°
2026-05-04 18:31 51.48337 8.27681 19765 ft 252 kts 318°
2026-05-04 18:32 51.49736 8.25967 19292 ft 259 kts 319°
2026-05-04 18:32 51.51176 8.24189 18833 ft 261 kts 319°
2026-05-04 18:32 51.52603 8.22419 18479 ft 256 kts 319°
2026-05-04 18:32 51.54005 8.20674 18105 ft 252 kts 319°
2026-05-04 18:33 51.55382 8.18952 17703 ft 249 kts 319°
2026-05-04 18:33 51.56739 8.17250 17316 ft 245 kts 319°
2026-05-04 18:33 51.57995 8.15462 16917 ft 236 kts 302°
2026-05-04 18:33 51.58564 8.13106 16557 ft 221 kts 269°
2026-05-04 18:34 51.58257 8.10805 16202 ft 207 kts 243°
2026-05-04 18:34 51.57632 8.08741 15824 ft 203 kts 240°
2026-05-04 18:34 51.57024 8.06710 15448 ft 201 kts 242°
2026-05-04 18:34 51.56446 8.04659 15089 ft 211 kts 243°
2026-05-04 18:35 51.55807 8.02383 14623 ft 235 kts 243°
2026-05-04 18:35 51.55119 7.99919 14153 ft 247 kts 243°
2026-05-04 18:35 51.54417 7.97410 13974 ft 242 kts 243°
2026-05-04 18:35 51.53731 7.94977 13983 ft 238 kts 243°
2026-05-04 18:36 51.53045 7.92554 13978 ft 238 kts 243°
2026-05-04 18:36 51.52357 7.90121 13976 ft 241 kts 243°
2026-05-04 18:36 51.51663 7.87665 13973 ft 243 kts 243°
2026-05-04 18:36 51.50963 7.85191 13931 ft 245 kts 243°
2026-05-04 18:37 51.50234 7.82617 13413 ft 258 kts 243°
2026-05-04 18:37 51.49481 7.79956 12878 ft 264 kts 243°
2026-05-04 18:37 51.48722 7.77274 12367 ft 263 kts 243°
2026-05-04 18:37 51.47961 7.74616 11857 ft 261 kts 243°
2026-05-04 18:38 51.47207 7.71966 11355 ft 261 kts 244°
2026-05-04 18:38 51.46460 7.69324 10860 ft 258 kts 244°
2026-05-04 18:38 51.45722 7.66732 10374 ft 254 kts 244°
2026-05-04 18:38 51.44986 7.64162 9986 ft 251 kts 244°
2026-05-04 18:39 51.44268 7.61661 9974 ft 249 kts 244°
2026-05-04 18:39 51.43542 7.59132 9977 ft 250 kts 244°
2026-05-04 18:39 51.42819 7.56607 9977 ft 250 kts 244°
2026-05-04 18:39 51.42097 7.54072 9976 ft 249 kts 245°
2026-05-04 18:40 51.41580 7.51429 9974 ft 249 kts 253°
2026-05-04 18:40 51.41131 7.48743 9974 ft 250 kts 253°
2026-05-04 18:40 51.40436 7.46236 9978 ft 246 kts 237°
2026-05-04 18:40 51.39480 7.43958 9977 ft 246 kts 233°
2026-05-04 18:41 51.38483 7.41717 9571 ft 249 kts 233°
2026-05-04 18:41 51.37470 7.39463 9044 ft 249 kts 233°
2026-05-04 18:41 51.36459 7.37212 8528 ft 248 kts 233°
2026-05-04 18:41 51.35456 7.34980 8020 ft 245 kts 233°
2026-05-04 18:42 51.34467 7.32778 7519 ft 241 kts 233°
2026-05-04 18:42 51.33507 7.30641 7037 ft 238 kts 233°
2026-05-04 18:42 51.32580 7.28571 6868 ft 221 kts 233°
2026-05-04 18:42 51.31682 7.26562 6380 ft 222 kts 233°
2026-05-04 18:43 51.30771 7.24526 5864 ft 222 kts 233°
2026-05-04 18:43 51.29880 7.22548 5364 ft 222 kts 233°
2026-05-04 18:43 51.28967 7.20576 5016 ft 219 kts 232°
2026-05-04 18:43 51.28050 7.18620 5016 ft 221 kts 232°
2026-05-04 18:44 51.27122 7.16648 5018 ft 223 kts 232°
2026-05-04 18:44 51.26815 7.15973 5017 ft 223 kts 234°
2026-05-04 18:44 51.26478 7.11962 5005 ft 234 kts 286°
2026-05-04 18:44 51.27422 7.09823 5006 ft 242 kts 317°
2026-05-04 18:45 51.28968 7.08738 4995 ft 249 kts 349°
2026-05-04 18:45 51.30685 7.09022 5004 ft 249 kts 16°
2026-05-04 18:45 51.32307 7.10010 5001 ft 250 kts 22°
2026-05-04 18:45 51.33888 7.11176 4999 ft 250 kts 32°
2026-05-04 18:46 51.35133 7.13056 4998 ft 249 kts 50°
2026-05-04 18:46 51.36232 7.15218 5002 ft 250 kts 52°
2026-05-04 18:46 51.37301 7.17404 4815 ft 252 kts 53°
2026-05-04 18:46 51.38371 7.19634 4296 ft 251 kts 54°
2026-05-04 18:47 51.39540 7.21660 3785 ft 247 kts 34°
2026-05-04 18:47 51.41135 7.22544 3290 ft 243 kts
2026-05-04 18:47 51.42730 7.21962 3001 ft 229 kts 331°
2026-05-04 18:47 51.44002 7.20657 3004 ft 207 kts 323°
2026-05-04 18:48 51.45066 7.19335 3004 ft 179 kts 307°
2026-05-04 18:48 51.45432 7.17620 3018 ft 161 kts 266°
2026-05-04 18:48 51.45357 7.15757 3015 ft 175 kts 263°
2026-05-04 18:48 51.45236 7.13771 3017 ft 184 kts 262°
2026-05-04 18:49 51.45023 7.11769 3016 ft 181 kts 251°
2026-05-04 18:49 51.44641 7.09855 3007 ft 179 kts 249°
2026-05-04 18:49 51.44079 7.08117 3014 ft 174 kts 234°
2026-05-04 18:49 51.43377 7.06543 3005 ft 173 kts 232°
2026-05-04 18:50 51.42664 7.04995 3007 ft 172 kts 232°
2026-05-04 18:50 51.41940 7.03463 3016 ft 173 kts 231°
2026-05-04 18:50 51.41210 7.01930 3015 ft 173 kts 231°
2026-05-04 18:50 51.40486 7.00391 3012 ft 173 kts 231°
2026-05-04 18:51 51.39754 6.98855 3010 ft 174 kts 231°
2026-05-04 18:51 51.39030 6.97316 3001 ft 174 kts 231°
2026-05-04 18:51 51.38296 6.95776 2941 ft 173 kts 231°
2026-05-04 18:51 51.37584 6.94264 2733 ft 171 kts 231°
2026-05-04 18:52 51.36853 6.92726 2503 ft 178 kts 231°
2026-05-04 18:52 51.36115 6.91172 2257 ft 171 kts 231°
2026-05-04 18:52 51.35411 6.89689 2042 ft 168 kts 231°
2026-05-04 18:52 51.34706 6.88206 1818 ft 165 kts 231°
2026-05-04 18:53 51.34025 6.86763 1595 ft 158 kts 231°
2026-05-04 18:53 51.33383 6.85410 1393 ft 147 kts 230°
2026-05-04 18:53 51.32783 6.84147 1190 ft 138 kts 231°
2026-05-04 18:53 51.32403 6.83348 1063 ft 134 kts 231°
2026-05-04 18:54 51.31850 6.82183 881 ft 130 kts 231°
2026-05-04 18:54 51.31131 6.80674 649 ft 123 kts 231°
2026-05-04 18:54 51.30800 6.79977 548 ft 110 kts 230°
2026-05-04 18:54 51.30227 6.78765 321 ft 99 kts 230°
2026-05-04 18:55 51.29955 6.78197 203 ft 94 kts 225°
2026-05-04 18:55 51.29290 6.76803 128 ft 60 kts 232°
2026-05-04 18:55 51.29051 6.76303 127 ft 57 kts 232°
2026-05-04 18:56 51.28827 6.75841 123 ft 38 kts 225°
2026-05-04 18:56 51.28642 6.75680 119 ft 14 kts 185°
2026-05-04 18:56 51.28581 6.75679 121 ft 8 kts 174°
2026-05-04 18:56 51.28531 6.75706 120 ft 10 kts 158°
2026-05-04 18:57 51.28463 6.75775 119 ft 10 kts 143°
2026-05-04 18:57 51.28443 6.75799 120 ft 0 kts 143°
2026-05-04 19:00 51.28437 6.75806 121 ft 6 kts 143°
2026-05-04 19:00 51.28391 6.75864 123 ft 9 kts 141°
2026-05-04 19:00 51.28334 6.75932 125 ft 12 kts 143°
2026-05-04 19:00 51.28253 6.76024 124 ft 17 kts 146°
2026-05-04 19:01 51.28169 6.76094 124 ft 7 kts 200°
2026-05-04 19:01 51.28142 6.76049 123 ft 6 kts 226°
2026-05-04 19:01 51.28126 6.76028 126 ft 0 kts 205°
2026-05-04 19:03 51.28117 6.76011 123 ft 8 kts 244°
2026-05-04 19:03 51.28078 6.75914 124 ft 10 kts 232°
2026-05-04 19:03 51.28039 6.75837 124 ft 8 kts 216°
2026-05-04 19:03 51.27986 6.75824 125 ft 7 kts 182°
2026-05-04 19:04 51.27977 6.75823 125 ft 0 kts 181°
2026-05-04 19:04 51.27976 6.75823 125 ft 2 kts 187°
2026-05-04 19:04 51.27943 6.75812 125 ft 7 kts 212°
2026-05-04 19:04 51.27903 6.75738 125 ft 11 kts 232°
2026-05-04 19:05 51.27853 6.75631 125 ft 13 kts 232°
2026-05-04 19:05 51.27801 6.75523 124 ft 13 kts 234°
2026-05-04 19:05 51.27739 6.75438 123 ft 12 kts 174°
2026-05-04 19:05 51.27673 6.75485 123 ft 9 kts 154°
2026-05-04 19:06 51.27615 6.75527 122 ft 9 kts 166°
2026-05-04 19:06 51.27556 6.75567 124 ft 9 kts 154°
2026-05-04 19:06 51.27503 6.75549 122 ft 11 kts 241°
2026-05-04 19:06 51.27467 6.75436 121 ft 8 kts 243°
2026-05-04 19:07 51.27453 6.75388 118 ft 2 kts 173°
2026-05-04 19:07 51.27438 6.75375 120 ft 3 kts 248°
2026-05-04 19:07 51.27438 6.75373 119 ft 0 kts 257°